Time,TemperatureF,DewpointF,PressureIn,WindDirection,WindDirectionDegrees,WindSpeedMPH,WindSpeedGustMPH,Humidity,HourlyPrecipIn,Conditions,Clouds,dailyrainin,SoftwareType,DateUTC
2013-12-14 00:01:00,46.4,46.0,30.55,WNW,292,0.0,1.0,99,0.00,,,0.00,Rainwise IP-100,2013-12-14 08:01:00,
2013-12-14 00:07:00,46.3,46.0,30.55,NW,315,0.0,2.0,99,0.00,,,0.00,Rainwise IP-100,2013-12-14 08:07:00,
2013-12-14 00:12:00,46.1,46.0,30.55,NW,315,0.0,1.0,99,0.00,,,0.00,Rainwise IP-100,2013-12-14 08:12:00,
2013-12-14 00:17:00,46.0,46.0,30.55,NW,315,0.0,2.0,99,0.00,,,0.00,Rainwise IP-100,2013-12-14 08:17:00,
2013-12-14 00:22:00,45.8,46.0,30.55,NW,315,0.0,1.0,99,0.00,,,0.00,Rainwise IP-100,2013-12-14 08:22:00,
2013-12-14 00:27:00,45.6,46.0,30.55,NW,315,0.0,0.0,99,0.00,,,0.00,Rainwise IP-100,2013-12-14 08:27:00,
2013-12-14 00:32:00,45.3,45.0,30.55,NW,315,0.0,0.0,99,0.00,,,0.00,Rainwise IP-100,2013-12-14 08:32:00,
2013-12-14 00:37:00,45.1,45.0,30.55,NW,315,0.0,0.0,99,0.00,,,0.00,Rainwise IP-100,2013-12-14 08:37:00,
2013-12-14 00:42:00,45.0,45.0,30.54,NW,315,0.0,0.0,99,0.00,,,0.00,Rainwise IP-100,2013-12-14 08:42:00,
2013-12-14 00:47:00,44.8,45.0,30.54,NW,315,0.0,0.0,100,0.00,,,0.00,Rainwise IP-100,2013-12-14 08:47:00,
2013-12-14 00:52:00,44.6,45.0,30.54,NW,315,0.0,1.0,100,0.00,,,0.00,Rainwise IP-100,2013-12-14 08:52:00,
2013-12-14 00:57:00,44.6,45.0,30.54,NW,315,0.0,0.0,100,0.00,,,0.00,Rainwise IP-100,2013-12-14 08:57:00,
2013-12-14 01:02:00,44.5,45.0,30.54,NW,315,0.0,1.0,100,0.00,,,0.00,Rainwise IP-100,2013-12-14 09:02:00,
2013-12-14 01:07:00,44.3,44.0,30.54,NNE,22,0.0,2.0,100,0.00,,,0.00,Rainwise IP-100,2013-12-14 09:07:00,
2013-12-14 01:12:00,44.3,44.0,30.53,NNE,22,2.8,3.0,100,0.00,,,0.00,Rainwise IP-100,2013-12-14 09:12:00,
2013-12-14 01:17:00,44.5,45.0,30.54,NNE,22,2.3,4.0,100,0.00,,,0.00,Rainwise IP-100,2013-12-14 09:17:00,
2013-12-14 01:22:00,44.6,45.0,30.53,NNE,22,2.1,3.0,100,0.00,,,0.00,Rainwise IP-100,2013-12-14 09:22:00,
2013-12-14 01:27:00,44.6,45.0,30.54,NNE,22,2.6,3.0,99,0.00,,,0.00,Rainwise IP-100,2013-12-14 09:27:00,
2013-12-14 01:32:00,44.5,44.0,30.54,North,360,4.0,4.0,98,0.00,,,0.00,Rainwise IP-100,2013-12-14 09:32:00,
2013-12-14 01:37:00,44.5,44.0,30.54,NNW,337,3.3,4.0,98,0.00,,,0.00,Rainwise IP-100,2013-12-14 09:37:00,
2013-12-14 01:42:00,44.6,44.0,30.54,ENE,67,2.6,3.0,96,0.00,,,0.00,Rainwise IP-100,2013-12-14 09:42:00,
2013-12-14 01:47:00,44.9,43.0,30.55,NE,45,1.2,4.0,94,0.00,,,0.00,Rainwise IP-100,2013-12-14 09:47:00,
2013-12-14 01:52:00,45.3,43.0,30.55,NE,45,0.0,1.0,92,0.00,,,0.00,Rainwise IP-100,2013-12-14 09:52:00,
2013-12-14 01:57:00,45.4,43.0,30.55,NE,45,1.2,1.2,92,0.00,,,0.00,Rainwise IP-100,2013-12-14 09:57:00,
2013-12-14 02:02:00,45.3,43.0,30.55,NNE,22,0.0,2.0,92,0.00,,,0.00,Rainwise IP-100,2013-12-14 10:02:00,
2013-12-14 02:07:00,45.3,42.0,30.55,NNE,22,0.0,1.0,91,0.00,,,0.00,Rainwise IP-100,2013-12-14 10:07:00,
2013-12-14 02:12:00,45.5,43.0,30.55,NNE,22,0.0,1.0,90,0.00,,,0.00,Rainwise IP-100,2013-12-14 10:12:00,
2013-12-14 02:17:00,45.3,42.0,30.55,NNE,22,0.0,0.0,90,0.00,,,0.00,Rainwise IP-100,2013-12-14 10:17:00,
2013-12-14 02:22:00,44.8,42.0,30.55,NNE,22,0.0,0.0,90,0.00,,,0.00,Rainwise IP-100,2013-12-14 10:22:00,
2013-12-14 02:27:00,44.2,41.0,30.55,ENE,67,0.0,1.0,90,0.00,,,0.00,Rainwise IP-100,2013-12-14 10:27:00,
2013-12-14 02:32:00,44.2,42.0,30.55,ENE,67,1.6,3.0,92,0.00,,,0.00,Rainwise IP-100,2013-12-14 10:32:00,
2013-12-14 02:37:00,44.7,43.0,30.55,NE,45,2.1,4.0,93,0.00,,,0.00,Rainwise IP-100,2013-12-14 10:37:00,
2013-12-14 02:42:00,45.0,43.0,30.54,NNE,22,1.4,3.0,94,0.00,,,0.00,Rainwise IP-100,2013-12-14 10:42:00,
2013-12-14 02:47:00,45.0,43.0,30.55,NE,45,3.5,4.0,93,0.00,,,0.00,Rainwise IP-100,2013-12-14 10:47:00,
2013-12-14 02:52:00,45.0,43.0,30.55,NE,45,2.3,4.0,93,0.00,,,0.00,Rainwise IP-100,2013-12-14 10:52:00,
2013-12-14 02:57:00,45.0,43.0,30.55,NE,45,0.0,3.0,93,0.00,,,0.00,Rainwise IP-100,2013-12-14 10:57:00,
2013-12-14 03:02:00,44.7,43.0,30.55,NE,45,2.3,2.3,92,0.00,,,0.00,Rainwise IP-100,2013-12-14 11:02:00,
2013-12-14 03:07:00,44.5,43.0,30.54,NE,45,2.1,4.0,92,0.00,,,0.00,Rainwise IP-100,2013-12-14 11:07:00,
2013-12-14 03:12:00,44.3,42.0,30.55,NE,45,0.0,2.0,93,0.00,,,0.00,Rainwise IP-100,2013-12-14 11:12:00,
2013-12-14 03:17:00,44.1,42.0,30.55,NE,45,0.0,3.0,94,0.00,,,0.00,Rainwise IP-100,2013-12-14 11:17:00,
2013-12-14 03:22:00,44.0,42.0,30.54,NE,45,2.8,2.8,94,0.00,,,0.00,Rainwise IP-100,2013-12-14 11:22:00,
2013-12-14 03:27:00,44.0,43.0,30.54,NE,45,1.4,3.0,95,0.00,,,0.00,Rainwise IP-100,2013-12-14 11:27:00,
2013-12-14 03:32:00,43.9,43.0,30.54,NE,45,3.3,3.3,95,0.00,,,0.00,Rainwise IP-100,2013-12-14 11:32:00,
2013-12-14 03:37:00,43.8,43.0,30.54,NE,45,3.0,3.0,95,0.00,,,0.00,Rainwise IP-100,2013-12-14 11:37:00,
2013-12-14 03:42:00,43.9,43.0,30.54,NE,45,0.0,3.0,95,0.00,,,0.00,Rainwise IP-100,2013-12-14 11:42:00,
2013-12-14 03:47:00,43.7,43.0,30.55,NE,45,0.0,1.0,95,0.00,,,0.00,Rainwise IP-100,2013-12-14 11:47:00,
2013-12-14 03:52:00,43.4,42.0,30.54,ENE,67,0.0,1.0,95,0.00,,,0.00,Rainwise IP-100,2013-12-14 11:52:00,
2013-12-14 03:57:00,43.1,42.0,30.54,ENE,67,0.0,0.0,95,0.00,,,0.00,Rainwise IP-100,2013-12-14 11:57:00,
2013-12-14 04:02:00,43.0,42.0,30.54,ENE,67,0.0,1.0,96,0.00,,,0.00,Rainwise IP-100,2013-12-14 12:02:00,
2013-12-14 04:07:00,42.9,42.0,30.54,ENE,67,0.0,1.0,96,0.00,,,0.00,Rainwise IP-100,2013-12-14 12:07:00,
2013-12-14 04:12:00,42.9,42.0,30.54,ENE,67,0.0,1.0,96,0.00,,,0.00,Rainwise IP-100,2013-12-14 12:12:00,
2013-12-14 04:17:00,42.9,42.0,30.55,ENE,67,1.6,1.6,96,0.00,,,0.00,Rainwise IP-100,2013-12-14 12:17:00,
2013-12-14 04:22:00,42.9,42.0,30.54,ENE,67,0.0,3.0,96,0.00,,,0.00,Rainwise IP-100,2013-12-14 12:22:00,
2013-12-14 04:27:00,43.0,42.0,30.54,ENE,67,1.4,2.0,96,0.00,,,0.00,Rainwise IP-100,2013-12-14 12:27:00,
2013-12-14 04:32:00,43.0,42.0,30.54,NE,45,1.9,2.0,96,0.00,,,0.00,Rainwise IP-100,2013-12-14 12:32:00,
2013-12-14 04:37:00,42.9,42.0,30.54,NE,45,3.5,4.0,96,0.00,,,0.00,Rainwise IP-100,2013-12-14 12:37:00,
2013-12-14 04:42:00,43.0,42.0,30.54,NE,45,3.3,4.0,96,0.00,,,0.00,Rainwise IP-100,2013-12-14 12:42:00,
2013-12-14 04:47:00,43.1,42.0,30.54,NE,45,2.8,4.0,96,0.00,,,0.00,Rainwise IP-100,2013-12-14 12:47:00,
2013-12-14 04:52:00,43.2,42.0,30.54,NE,45,3.5,4.0,95,0.00,,,0.00,Rainwise IP-100,2013-12-14 12:52:00,
2013-12-14 04:57:00,43.3,42.0,30.54,NE,45,2.3,3.0,95,0.00,,,0.00,Rainwise IP-100,2013-12-14 12:57:00,
2013-12-14 05:02:00,43.3,42.0,30.54,NE,45,1.9,3.0,95,0.00,,,0.00,Rainwise IP-100,2013-12-14 13:02:00,
2013-12-14 05:07:00,43.1,42.0,30.54,NE,45,2.1,3.0,95,0.00,,,0.00,Rainwise IP-100,2013-12-14 13:07:00,
2013-12-14 05:12:00,43.1,42.0,30.55,NE,45,1.6,3.0,95,0.00,,,0.00,Rainwise IP-100,2013-12-14 13:12:00,
2013-12-14 05:17:00,43.1,42.0,30.54,NE,45,1.6,3.0,96,0.00,,,0.00,Rainwise IP-100,2013-12-14 13:17:00,
2013-12-14 05:22:00,43.0,42.0,30.55,ENE,67,1.4,4.0,96,0.00,,,0.00,Rainwise IP-100,2013-12-14 13:22:00,
2013-12-14 05:27:00,43.2,42.0,30.55,ENE,67,1.4,3.0,96,0.00,,,0.00,Rainwise IP-100,2013-12-14 13:27:00,
2013-12-14 05:32:00,43.3,42.0,30.55,ENE,67,1.4,2.0,97,0.00,,,0.00,Rainwise IP-100,2013-12-14 13:32:00,
2013-12-14 05:37:00,43.1,42.0,30.55,NE,45,2.3,2.3,97,0.00,,,0.00,Rainwise IP-100,2013-12-14 13:37:00,
2013-12-14 05:42:00,43.1,42.0,30.55,ENE,67,1.9,2.0,97,0.00,,,0.00,Rainwise IP-100,2013-12-14 13:42:00,
2013-12-14 05:47:00,43.1,42.0,30.55,NE,45,1.6,3.0,98,0.00,,,0.00,Rainwise IP-100,2013-12-14 13:47:00,
2013-12-14 05:52:00,42.8,42.0,30.55,NE,45,0.0,2.0,98,0.00,,,0.00,Rainwise IP-100,2013-12-14 13:52:00,
2013-12-14 05:57:00,42.5,42.0,30.55,NE,45,1.4,2.0,98,0.00,,,0.00,Rainwise IP-100,2013-12-14 13:57:00,
2013-12-14 06:02:00,42.3,41.0,30.55,East,90,1.4,2.0,98,0.00,,,0.00,Rainwise IP-100,2013-12-14 14:02:00,
2013-12-14 06:07:00,42.5,42.0,30.56,NE,45,0.0,2.0,98,0.00,,,0.00,Rainwise IP-100,2013-12-14 14:07:00,
2013-12-14 06:12:00,42.4,42.0,30.55,NE,45,0.0,1.0,99,0.00,,,0.00,Rainwise IP-100,2013-12-14 14:12:00,
2013-12-14 06:17:00,42.1,41.0,30.55,NE,45,0.0,1.0,98,0.00,,,0.00,Rainwise IP-100,2013-12-14 14:17:00,
2013-12-14 06:22:00,42.0,41.0,30.56,NNE,22,0.0,1.0,98,0.00,,,0.00,Rainwise IP-100,2013-12-14 14:22:00,
2013-12-14 06:27:00,41.9,42.0,30.56,NNE,22,0.0,2.0,99,0.00,,,0.00,Rainwise IP-100,2013-12-14 14:27:00,
2013-12-14 06:32:00,42.0,42.0,30.56,NNE,22,1.2,1.2,99,0.00,,,0.00,Rainwise IP-100,2013-12-14 14:32:00,
2013-12-14 06:37:00,42.2,42.0,30.56,NNE,22,1.9,2.0,99,0.00,,,0.00,Rainwise IP-100,2013-12-14 14:37:00,
2013-12-14 06:42:00,42.3,42.0,30.57,NNE,22,2.1,3.0,99,0.00,,,0.00,Rainwise IP-100,2013-12-14 14:42:00,
2013-12-14 06:47:00,42.3,42.0,30.57,NNE,22,4.0,6.0,99,0.00,,,0.00,Rainwise IP-100,2013-12-14 14:47:00,
2013-12-14 06:52:00,42.7,43.0,30.57,NE,45,3.3,5.0,99,0.00,,,0.00,Rainwise IP-100,2013-12-14 14:52:00,
2013-12-14 06:57:00,42.9,42.0,30.57,NE,45,3.7,5.0,98,0.00,,,0.00,Rainwise IP-100,2013-12-14 14:57:00,
2013-12-14 07:02:00,43.1,42.0,30.58,NE,45,2.6,4.0,98,0.00,,,0.00,Rainwise IP-100,2013-12-14 15:02:00,
2013-12-14 07:07:00,43.1,42.0,30.58,NE,45,1.9,4.0,98,0.00,,,0.00,Rainwise IP-100,2013-12-14 15:07:00,
2013-12-14 07:12:00,42.9,42.0,30.58,ENE,67,1.2,2.0,98,0.00,,,0.00,Rainwise IP-100,2013-12-14 15:12:00,
2013-12-14 07:17:00,42.8,42.0,30.58,ENE,67,0.0,2.0,98,0.00,,,0.00,Rainwise IP-100,2013-12-14 15:17:00,
2013-12-14 07:22:00,42.6,42.0,30.58,ENE,67,0.0,0.0,98,0.00,,,0.00,Rainwise IP-100,2013-12-14 15:22:00,
2013-12-14 07:27:00,42.1,41.0,30.59,ENE,67,1.2,0.0,98,0.00,,,0.00,Rainwise IP-100,2013-12-14 15:27:00,
2013-12-14 07:32:00,41.9,41.0,30.59,ENE,67,0.0,1.0,98,0.00,,,0.00,Rainwise IP-100,2013-12-14 15:32:00,
2013-12-14 07:37:00,41.9,41.0,30.58,ENE,67,0.0,0.0,98,0.00,,,0.00,Rainwise IP-100,2013-12-14 15:37:00,
2013-12-14 07:42:00,41.9,41.0,30.59,ENE,67,0.0,0.0,98,0.00,,,0.00,Rainwise IP-100,2013-12-14 15:42:00,
2013-12-14 07:47:00,42.3,41.0,30.59,ENE,67,0.0,0.0,98,0.00,,,0.00,Rainwise IP-100,2013-12-14 15:47:00,
2013-12-14 07:52:00,42.8,43.0,30.59,ENE,67,0.0,0.0,99,0.00,,,0.00,Rainwise IP-100,2013-12-14 15:52:00,
2013-12-14 07:57:00,43.3,43.0,30.59,ENE,67,0.0,0.0,99,0.00,,,0.00,Rainwise IP-100,2013-12-14 15:57:00,
2013-12-14 08:02:00,44.0,44.0,30.60,ENE,67,0.0,0.0,99,0.00,,,0.00,Rainwise IP-100,2013-12-14 16:02:00,
2013-12-14 08:07:00,44.7,45.0,30.60,ENE,67,0.0,1.0,99,0.00,,,0.00,Rainwise IP-100,2013-12-14 16:07:00,
2013-12-14 08:12:00,45.1,44.0,30.60,ENE,67,1.6,1.6,98,0.00,,,0.00,Rainwise IP-100,2013-12-14 16:12:00,
2013-12-14 08:17:00,45.4,44.0,30.60,SE,135,0.0,2.0,97,0.00,,,0.00,Rainwise IP-100,2013-12-14 16:17:00,
2013-12-14 08:22:00,45.9,45.0,30.60,SE,135,0.0,1.0,96,0.00,,,0.00,Rainwise IP-100,2013-12-14 16:22:00,
2013-12-14 08:27:00,46.6,45.0,30.60,SE,135,1.2,2.0,95,0.00,,,0.00,Rainwise IP-100,2013-12-14 16:27:00,
2013-12-14 08:32:00,47.2,45.0,30.60,SE,135,1.9,2.0,94,0.00,,,0.00,Rainwise IP-100,2013-12-14 16:32:00,
2013-12-14 08:37:00,47.4,45.0,30.60,East,90,1.2,2.0,92,0.00,,,0.00,Rainwise IP-100,2013-12-14 16:37:00,
2013-12-14 08:42:00,47.7,45.0,30.61,SSE,157,1.4,3.0,90,0.00,,,0.00,Rainwise IP-100,2013-12-14 16:42:00,
2013-12-14 08:47:00,48.6,45.0,30.61,NE,45,1.9,4.0,87,0.00,,,0.00,Rainwise IP-100,2013-12-14 16:47:00,
2013-12-14 08:52:00,49.5,44.0,30.61,ENE,67,9.3,9.3,81,0.00,,,0.00,Rainwise IP-100,2013-12-14 16:52:00,
2013-12-14 08:57:00,50.2,41.0,30.61,NE,45,4.9,13.0,73,0.00,,,0.00,Rainwise IP-100,2013-12-14 16:57:00,
2013-12-14 09:02:00,50.7,41.0,30.61,NNE,22,4.9,11.0,69,0.00,,,0.00,Rainwise IP-100,2013-12-14 17:02:00,
2013-12-14 09:07:00,51.4,40.0,30.61,NE,45,7.2,8.0,66,0.00,,,0.00,Rainwise IP-100,2013-12-14 17:07:00,
2013-12-14 09:12:00,52.0,40.0,30.61,NNW,337,4.9,13.0,64,0.00,,,0.00,Rainwise IP-100,2013-12-14 17:12:00,
2013-12-14 09:17:00,52.5,39.0,30.61,NE,45,8.4,12.0,60,0.00,,,0.00,Rainwise IP-100,2013-12-14 17:17:00,
2013-12-14 09:22:00,52.9,38.0,30.61,East,90,3.0,14.0,58,0.00,,,0.00,Rainwise IP-100,2013-12-14 17:22:00,
2013-12-14 09:27:00,53.3,38.0,30.62,NE,45,8.6,15.0,57,0.00,,,0.00,Rainwise IP-100,2013-12-14 17:27:00,
2013-12-14 09:32:00,53.5,38.0,30.62,NNE,22,2.6,16.0,56,0.00,,,0.00,Rainwise IP-100,2013-12-14 17:32:00,
2013-12-14 09:37:00,53.6,38.0,30.63,NNE,22,1.9,13.0,56,0.00,,,0.00,Rainwise IP-100,2013-12-14 17:37:00,
2013-12-14 09:42:00,53.8,38.0,30.63,NNE,22,5.4,11.0,57,0.00,,,0.00,Rainwise IP-100,2013-12-14 17:42:00,
2013-12-14 09:47:00,54.0,39.0,30.63,ESE,112,2.6,7.0,57,0.00,,,0.00,Rainwise IP-100,2013-12-14 17:47:00,
2013-12-14 09:52:00,54.4,40.0,30.63,South,180,1.6,11.0,57,0.00,,,0.00,Rainwise IP-100,2013-12-14 17:52:00,
2013-12-14 09:57:00,54.6,39.0,30.63,ENE,67,0.0,9.0,56,0.00,,,0.00,Rainwise IP-100,2013-12-14 17:57:00,
2013-12-14 10:02:00,54.8,40.0,30.62,ENE,67,6.5,6.5,57,0.00,,,0.00,Rainwise IP-100,2013-12-14 18:02:00,
2013-12-14 10:07:00,55.2,40.0,30.63,ENE,67,2.6,9.0,56,0.00,,,0.00,Rainwise IP-100,2013-12-14 18:07:00,
2013-12-14 10:12:00,55.4,39.0,30.62,ENE,67,5.4,10.0,55,0.00,,,0.00,Rainwise IP-100,2013-12-14 18:12:00,
2013-12-14 10:17:00,55.5,40.0,30.62,NNE,22,7.9,11.0,55,0.00,,,0.00,Rainwise IP-100,2013-12-14 18:17:00,
2013-12-14 10:22:00,55.4,39.0,30.62,NE,45,10.0,12.0,55,0.00,,,0.00,Rainwise IP-100,2013-12-14 18:22:00,
2013-12-14 10:27:00,55.2,39.0,30.62,ESE,112,3.5,11.0,55,0.00,,,0.00,Rainwise IP-100,2013-12-14 18:27:00,
2013-12-14 10:32:00,55.3,39.0,30.62,NNE,22,6.3,14.0,55,0.00,,,0.00,Rainwise IP-100,2013-12-14 18:32:00,
2013-12-14 10:37:00,55.2,39.0,30.61,NE,45,4.9,13.0,55,0.00,,,0.00,Rainwise IP-100,2013-12-14 18:37:00,
2013-12-14 10:42:00,55.0,39.0,30.61,NNE,22,6.5,11.0,55,0.00,,,0.00,Rainwise IP-100,2013-12-14 18:42:00,
2013-12-14 10:47:00,55.4,39.0,30.61,ESE,112,1.9,12.0,55,0.00,,,0.00,Rainwise IP-100,2013-12-14 18:47:00,
2013-12-14 10:52:00,56.1,40.0,30.61,ENE,67,1.4,5.0,55,0.00,,,0.00,Rainwise IP-100,2013-12-14 18:52:00,
2013-12-14 10:57:00,56.5,40.0,30.61,East,90,4.7,11.0,54,0.00,,,0.00,Rainwise IP-100,2013-12-14 18:57:00,
2013-12-14 11:02:00,56.7,40.0,30.61,NNE,22,4.7,6.0,54,0.00,,,0.00,Rainwise IP-100,2013-12-14 19:02:00,
2013-12-14 11:07:00,57.0,40.0,30.61,ENE,67,3.3,8.0,53,0.00,,,0.00,Rainwise IP-100,2013-12-14 19:07:00,
2013-12-14 11:12:00,57.2,39.0,30.61,NNE,22,1.9,8.0,52,0.00,,,0.00,Rainwise IP-100,2013-12-14 19:12:00,
2013-12-14 11:17:00,57.9,40.0,30.61,ESE,112,2.8,6.0,52,0.00,,,0.00,Rainwise IP-100,2013-12-14 19:17:00,
2013-12-14 11:22:00,58.8,40.0,30.61,SE,135,1.9,7.0,50,0.00,,,0.00,Rainwise IP-100,2013-12-14 19:22:00,
2013-12-14 11:27:00,59.0,40.0,30.61,NNE,22,6.3,6.3,49,0.00,,,0.00,Rainwise IP-100,2013-12-14 19:27:00,
2013-12-14 11:32:00,58.6,40.0,30.61,NE,45,6.8,7.0,49,0.00,,,0.00,Rainwise IP-100,2013-12-14 19:32:00,
2013-12-14 11:37:00,58.2,39.0,30.61,NE,45,2.6,7.0,49,0.00,,,0.00,Rainwise IP-100,2013-12-14 19:37:00,
2013-12-14 11:42:00,58.4,39.0,30.60,ENE,67,2.6,8.0,49,0.00,,,0.00,Rainwise IP-100,2013-12-14 19:42:00,
2013-12-14 11:47:00,58.8,39.0,30.60,ESE,112,2.8,7.0,48,0.00,,,0.00,Rainwise IP-100,2013-12-14 19:47:00,
2013-12-14 11:52:00,59.1,39.0,30.59,SSE,157,1.4,8.0,48,0.00,,,0.00,Rainwise IP-100,2013-12-14 19:52:00,
2013-12-14 11:57:00,59.5,39.0,30.59,East,90,8.4,8.4,48,0.00,,,0.00,Rainwise IP-100,2013-12-14 19:57:00,
2013-12-14 12:02:00,59.4,39.0,30.59,ENE,67,5.6,9.0,48,0.00,,,0.00,Rainwise IP-100,2013-12-14 20:02:00,
2013-12-14 12:07:00,58.9,39.0,30.58,NE,45,7.9,10.0,48,0.00,,,0.00,Rainwise IP-100,2013-12-14 20:07:00,
2013-12-14 12:12:00,58.2,39.0,30.58,NE,45,3.3,11.0,49,0.00,,,0.00,Rainwise IP-100,2013-12-14 20:12:00,
2013-12-14 12:17:00,58.0,39.0,30.58,East,90,5.6,12.0,49,0.00,,,0.00,Rainwise IP-100,2013-12-14 20:17:00,
2013-12-14 12:22:00,58.2,39.0,30.58,ENE,67,7.7,13.0,48,0.00,,,0.00,Rainwise IP-100,2013-12-14 20:22:00,
2013-12-14 12:27:00,58.2,39.0,30.57,ENE,67,2.1,10.0,48,0.00,,,0.00,Rainwise IP-100,2013-12-14 20:27:00,
2013-12-14 12:32:00,58.4,39.0,30.57,NNE,22,2.8,9.0,48,0.00,,,0.00,Rainwise IP-100,2013-12-14 20:32:00,
2013-12-14 12:37:00,58.8,39.0,30.58,East,90,2.6,8.0,48,0.00,,,0.00,Rainwise IP-100,2013-12-14 20:37:00,
2013-12-14 12:42:00,59.2,39.0,30.57,NNE,22,2.6,7.0,47,0.00,,,0.00,Rainwise IP-100,2013-12-14 20:42:00,
2013-12-14 12:47:00,59.6,39.0,30.57,SSE,157,3.0,7.0,47,0.00,,,0.00,Rainwise IP-100,2013-12-14 20:47:00,
2013-12-14 12:52:00,59.8,38.0,30.57,ENE,67,1.9,6.0,46,0.00,,,0.00,Rainwise IP-100,2013-12-14 20:52:00,
2013-12-14 12:57:00,60.1,39.0,30.57,ENE,67,3.3,6.0,46,0.00,,,0.00,Rainwise IP-100,2013-12-14 20:57:00,
2013-12-14 13:02:00,60.8,39.0,30.57,NE,45,4.9,8.0,45,0.00,,,0.00,Rainwise IP-100,2013-12-14 21:02:00,
2013-12-14 13:07:00,61.5,39.0,30.56,NE,45,5.8,9.0,43,0.00,,,0.00,Rainwise IP-100,2013-12-14 21:07:00,
2013-12-14 13:12:00,61.5,38.0,30.56,ESE,112,5.1,10.0,42,0.00,,,0.00,Rainwise IP-100,2013-12-14 21:12:00,
2013-12-14 13:17:00,61.5,38.0,30.56,WSW,247,0.0,10.0,41,0.00,,,0.00,Rainwise IP-100,2013-12-14 21:17:00,
2013-12-14 13:22:00,61.8,37.0,30.56,NNE,22,8.4,12.0,40,0.00,,,0.00,Rainwise IP-100,2013-12-14 21:22:00,
2013-12-14 13:27:00,61.7,37.0,30.56,ESE,112,3.0,10.0,40,0.00,,,0.00,Rainwise IP-100,2013-12-14 21:27:00,
2013-12-14 13:32:00,61.4,37.0,30.56,ENE,67,1.4,11.0,40,0.00,,,0.00,Rainwise IP-100,2013-12-14 21:32:00,
2013-12-14 13:37:00,61.2,37.0,30.55,NE,45,3.3,11.0,40,0.00,,,0.00,Rainwise IP-100,2013-12-14 21:37:00,
2013-12-14 13:42:00,61.2,37.0,30.55,ENE,67,3.7,8.0,40,0.00,,,0.00,Rainwise IP-100,2013-12-14 21:42:00,
2013-12-14 13:47:00,61.5,37.0,30.55,NE,45,2.1,7.0,40,0.00,,,0.00,Rainwise IP-100,2013-12-14 21:47:00,
2013-12-14 13:52:00,61.7,37.0,30.56,East,90,7.0,9.0,40,0.00,,,0.00,Rainwise IP-100,2013-12-14 21:52:00,
2013-12-14 13:57:00,61.8,36.0,30.56,East,90,9.3,10.0,39,0.00,,,0.00,Rainwise IP-100,2013-12-14 21:57:00,
2013-12-14 14:02:00,62.2,37.0,30.55,East,90,7.9,9.0,39,0.00,,,0.00,Rainwise IP-100,2013-12-14 22:02:00,
2013-12-14 14:07:00,62.6,37.0,30.55,NE,45,2.6,11.0,38,0.00,,,0.00,Rainwise IP-100,2013-12-14 22:07:00,
2013-12-14 14:12:00,62.5,37.0,30.55,NE,45,6.5,10.0,38,0.00,,,0.00,Rainwise IP-100,2013-12-14 22:12:00,
2013-12-14 14:17:00,62.4,37.0,30.55,NNE,22,6.3,9.0,38,0.00,,,0.00,Rainwise IP-100,2013-12-14 22:17:00,
2013-12-14 14:22:00,62.3,36.0,30.55,NE,45,2.8,10.0,37,0.00,,,0.00,Rainwise IP-100,2013-12-14 22:22:00,
2013-12-14 14:27:00,62.3,36.0,30.55,ESE,112,2.1,6.0,37,0.00,,,0.00,Rainwise IP-100,2013-12-14 22:27:00,
2013-12-14 14:32:00,62.6,37.0,30.55,ENE,67,2.3,7.0,38,0.00,,,0.00,Rainwise IP-100,2013-12-14 22:32:00,
2013-12-14 14:37:00,62.8,37.0,30.55,SE,135,2.8,6.0,39,0.00,,,0.00,Rainwise IP-100,2013-12-14 22:37:00,
2013-12-14 14:42:00,62.6,37.0,30.56,ENE,67,2.6,8.0,39,0.00,,,0.00,Rainwise IP-100,2013-12-14 22:42:00,
2013-12-14 14:47:00,62.4,37.0,30.55,ENE,67,4.0,7.0,39,0.00,,,0.00,Rainwise IP-100,2013-12-14 22:47:00,
2013-12-14 14:52:00,62.5,37.0,30.55,SSE,157,1.4,7.0,39,0.00,,,0.00,Rainwise IP-100,2013-12-14 22:52:00,
2013-12-14 14:57:00,62.4,37.0,30.55,North,360,2.8,10.0,38,0.00,,,0.00,Rainwise IP-100,2013-12-14 22:57:00,
2013-12-14 15:02:00,62.4,36.0,30.55,SE,135,1.9,4.0,37,0.00,,,0.00,Rainwise IP-100,2013-12-14 23:02:00,
2013-12-14 15:07:00,62.5,37.0,30.55,SE,135,2.1,6.0,38,0.00,,,0.00,Rainwise IP-100,2013-12-14 23:07:00,
2013-12-14 15:12:00,62.4,36.0,30.55,ESE,112,1.4,9.0,37,0.00,,,0.00,Rainwise IP-100,2013-12-14 23:12:00,
2013-12-14 15:17:00,62.4,36.0,30.55,NNE,22,1.6,5.0,37,0.00,,,0.00,Rainwise IP-100,2013-12-14 23:17:00,
2013-12-14 15:22:00,62.3,36.0,30.55,ESE,112,0.0,5.0,37,0.00,,,0.00,Rainwise IP-100,2013-12-14 23:22:00,
2013-12-14 15:27:00,62.2,36.0,30.55,SE,135,0.0,5.0,37,0.00,,,0.00,Rainwise IP-100,2013-12-14 23:27:00,
2013-12-14 15:32:00,62.2,36.0,30.55,ENE,67,3.5,5.0,38,0.00,,,0.00,Rainwise IP-100,2013-12-14 23:32:00,
2013-12-14 15:37:00,62.0,36.0,30.55,NNE,22,3.0,4.0,38,0.00,,,0.00,Rainwise IP-100,2013-12-14 23:37:00,
2013-12-14 15:42:00,61.8,36.0,30.55,NE,45,5.6,5.6,38,0.00,,,0.00,Rainwise IP-100,2013-12-14 23:42:00,
2013-12-14 15:47:00,61.4,36.0,30.55,NE,45,3.3,6.0,38,0.00,,,0.00,Rainwise IP-100,2013-12-14 23:47:00,
2013-12-14 15:53:00,61.0,36.0,30.55,North,360,3.3,6.0,38,0.00,,,0.00,Rainwise IP-100,2013-12-14 23:53:00,
2013-12-14 15:57:00,60.8,35.0,30.55,NNE,22,4.7,6.0,38,0.00,,,0.00,Rainwise IP-100,2013-12-14 23:57:00,
2013-12-14 16:02:00,60.8,36.0,30.55,NNE,22,2.6,4.0,39,0.00,,,0.00,Rainwise IP-100,2013-12-15 00:02:00,
2013-12-14 16:07:00,60.6,36.0,30.55,NNE,22,3.7,5.0,39,0.00,,,0.00,Rainwise IP-100,2013-12-15 00:07:00,
2013-12-14 16:12:00,60.4,36.0,30.55,NNE,22,4.2,6.0,40,0.00,,,0.00,Rainwise IP-100,2013-12-15 00:12:00,
2013-12-14 16:17:00,60.1,36.0,30.56,NNE,22,3.3,6.0,40,0.00,,,0.00,Rainwise IP-100,2013-12-15 00:17:00,
2013-12-14 16:22:00,59.7,35.0,30.56,NNE,22,4.2,4.2,40,0.00,,,0.00,Rainwise IP-100,2013-12-15 00:22:00,
2013-12-14 16:27:00,59.3,36.0,30.56,NW,315,3.0,6.0,41,0.00,,,0.00,Rainwise IP-100,2013-12-15 00:27:00,
2013-12-14 16:32:00,58.9,36.0,30.56,NW,315,4.0,5.0,41,0.00,,,0.00,Rainwise IP-100,2013-12-15 00:32:00,
2013-12-14 16:37:00,58.6,36.0,30.56,NNW,337,2.3,5.0,42,0.00,,,0.00,Rainwise IP-100,2013-12-15 00:37:00,
2013-12-14 16:42:00,58.1,36.0,30.56,WNW,292,2.3,4.0,42,0.00,,,0.00,Rainwise IP-100,2013-12-15 00:42:00,
2013-12-14 16:47:00,57.7,36.0,30.56,North,360,0.0,5.0,43,0.00,,,0.00,Rainwise IP-100,2013-12-15 00:47:00,
2013-12-14 16:52:00,57.4,36.0,30.55,NE,45,0.0,2.0,43,0.00,,,0.00,Rainwise IP-100,2013-12-15 00:52:00,
2013-12-14 16:57:00,56.9,35.0,30.56,North,360,1.2,3.0,43,0.00,,,0.00,Rainwise IP-100,2013-12-15 00:57:00,
2013-12-14 17:03:00,56.5,35.0,30.56,SE,135,0.0,3.0,44,0.00,,,0.00,Rainwise IP-100,2013-12-15 01:03:00,
2013-12-14 17:08:00,56.0,35.0,30.56,NNE,22,1.4,2.0,45,0.00,,,0.00,Rainwise IP-100,2013-12-15 01:08:00,
2013-12-14 17:13:00,55.7,36.0,30.55,NNW,337,1.6,6.0,46,0.00,,,0.00,Rainwise IP-100,2013-12-15 01:13:00,
2013-12-14 17:18:00,55.6,36.0,30.56,NW,315,1.4,3.0,46,0.00,,,0.00,Rainwise IP-100,2013-12-15 01:18:00,
2013-12-14 17:23:00,55.3,35.0,30.55,NW,315,4.2,5.0,46,0.00,,,0.00,Rainwise IP-100,2013-12-15 01:23:00,
2013-12-14 17:28:00,55.1,35.0,30.56,ENE,67,0.0,4.0,46,0.00,,,0.00,Rainwise IP-100,2013-12-15 01:28:00,
2013-12-14 17:33:00,54.8,35.0,30.55,NNW,337,1.4,3.0,46,0.00,,,0.00,Rainwise IP-100,2013-12-15 01:33:00,
2013-12-14 17:38:00,54.4,36.0,30.56,NNW,337,0.0,3.0,48,0.00,,,0.00,Rainwise IP-100,2013-12-15 01:38:00,
2013-12-14 17:43:00,54.0,37.0,30.56,WSW,247,1.4,1.4,52,0.00,,,0.00,Rainwise IP-100,2013-12-15 01:43:00,
2013-12-14 17:48:00,53.5,39.0,30.56,WNW,292,2.3,2.3,58,0.00,,,0.00,Rainwise IP-100,2013-12-15 01:48:00,
2013-12-14 17:53:00,53.0,41.0,30.56,NW,315,3.5,4.0,64,0.00,,,0.00,Rainwise IP-100,2013-12-15 01:53:00,
2013-12-14 17:58:00,52.5,42.0,30.56,WNW,292,3.3,4.0,68,0.00,,,0.00,Rainwise IP-100,2013-12-15 01:58:00,
2013-12-14 18:03:00,52.3,42.0,30.56,WNW,292,2.8,4.0,68,0.00,,,0.00,Rainwise IP-100,2013-12-15 02:03:00,
2013-12-14 18:08:00,52.2,41.0,30.56,WNW,292,1.6,2.0,67,0.00,,,0.00,Rainwise IP-100,2013-12-15 02:08:00,
2013-12-14 18:13:00,52.2,39.0,30.56,SSE,157,0.0,1.0,62,0.00,,,0.00,Rainwise IP-100,2013-12-15 02:13:00,
2013-12-14 18:18:00,52.0,38.0,30.57,NNW,337,0.0,0.0,58,0.00,,,0.00,Rainwise IP-100,2013-12-15 02:18:00,
2013-12-14 18:23:00,51.8,38.0,30.57,NNW,337,0.0,1.0,58,0.00,,,0.00,Rainwise IP-100,2013-12-15 02:23:00,
2013-12-14 18:28:00,51.6,39.0,30.57,NNW,337,0.0,0.0,61,0.00,,,0.00,Rainwise IP-100,2013-12-15 02:28:00,
2013-12-14 18:33:00,51.5,40.0,30.57,ENE,67,0.0,3.0,63,0.00,,,0.00,Rainwise IP-100,2013-12-15 02:33:00,
2013-12-14 18:38:00,51.7,38.0,30.57,NNW,337,1.2,7.0,58,0.00,,,0.00,Rainwise IP-100,2013-12-15 02:38:00,
2013-12-14 18:43:00,52.4,35.0,30.57,North,360,0.0,6.0,52,0.00,,,0.00,Rainwise IP-100,2013-12-15 02:43:00,
2013-12-14 18:48:00,52.9,35.0,30.57,NNE,22,1.9,8.0,50,0.00,,,0.00,Rainwise IP-100,2013-12-15 02:48:00,
2013-12-14 18:53:00,53.2,35.0,30.57,ENE,67,1.6,10.0,49,0.00,,,0.00,Rainwise IP-100,2013-12-15 02:53:00,
2013-12-14 18:58:00,53.3,35.0,30.57,WNW,292,0.0,8.0,49,0.00,,,0.00,Rainwise IP-100,2013-12-15 02:58:00,
2013-12-14 19:03:00,53.3,35.0,30.57,NW,315,4.0,8.0,49,0.00,,,0.00,Rainwise IP-100,2013-12-15 03:03:00,
2013-12-14 19:08:00,53.2,35.0,30.57,NNW,337,4.9,9.0,49,0.00,,,0.00,Rainwise IP-100,2013-12-15 03:08:00,
2013-12-14 19:13:00,53.0,35.0,30.57,NE,45,2.1,9.0,50,0.00,,,0.00,Rainwise IP-100,2013-12-15 03:13:00,
2013-12-14 19:18:00,53.0,35.0,30.57,NNW,337,5.4,7.0,50,0.00,,,0.00,Rainwise IP-100,2013-12-15 03:18:00,
2013-12-14 19:23:00,52.9,35.0,30.58,NNE,22,2.8,9.0,50,0.00,,,0.00,Rainwise IP-100,2013-12-15 03:23:00,
2013-12-14 19:28:00,52.8,35.0,30.58,NNE,22,4.2,10.0,50,0.00,,,0.00,Rainwise IP-100,2013-12-15 03:28:00,
2013-12-14 19:33:00,52.6,35.0,30.58,ENE,67,4.2,8.0,50,0.00,,,0.00,Rainwise IP-100,2013-12-15 03:33:00,
2013-12-14 19:38:00,52.5,35.0,30.58,NNE,22,3.3,7.0,51,0.00,,,0.00,Rainwise IP-100,2013-12-15 03:38:00,
2013-12-14 19:43:00,52.3,35.0,30.58,North,360,6.8,6.8,51,0.00,,,0.00,Rainwise IP-100,2013-12-15 03:43:00,
2013-12-14 19:48:00,52.2,35.0,30.58,North,360,6.1,7.0,52,0.00,,,0.00,Rainwise IP-100,2013-12-15 03:48:00,
2013-12-14 19:53:00,52.2,35.0,30.58,North,360,2.1,8.0,52,0.00,,,0.00,Rainwise IP-100,2013-12-15 03:53:00,
2013-12-14 19:58:00,52.2,35.0,30.58,NNE,22,1.2,8.0,52,0.00,,,0.00,Rainwise IP-100,2013-12-15 03:58:00,
2013-12-14 20:03:00,52.1,35.0,30.58,NNE,22,6.1,8.0,52,0.00,,,0.00,Rainwise IP-100,2013-12-15 04:03:00,
2013-12-14 20:08:00,52.1,35.0,30.57,North,360,5.1,9.0,52,0.00,,,0.00,Rainwise IP-100,2013-12-15 04:08:00,
2013-12-14 20:13:00,52.1,36.0,30.58,NNW,337,3.3,11.0,53,0.00,,,0.00,Rainwise IP-100,2013-12-15 04:13:00,
2013-12-14 20:18:00,52.0,36.0,30.58,NNW,337,8.6,9.0,53,0.00,,,0.00,Rainwise IP-100,2013-12-15 04:18:00,
2013-12-14 20:23:00,51.9,36.0,30.58,NNE,22,2.8,8.0,53,0.00,,,0.00,Rainwise IP-100,2013-12-15 04:23:00,
2013-12-14 20:28:00,51.8,36.0,30.58,NNE,22,3.5,8.0,54,0.00,,,0.00,Rainwise IP-100,2013-12-15 04:28:00,
2013-12-14 20:33:00,51.7,36.0,30.58,NNW,337,4.4,7.0,54,0.00,,,0.00,Rainwise IP-100,2013-12-15 04:33:00,
2013-12-14 20:38:00,51.7,36.0,30.58,NNW,337,4.2,8.0,54,0.00,,,0.00,Rainwise IP-100,2013-12-15 04:38:00,
2013-12-14 20:43:00,51.6,36.0,30.58,NNW,337,4.4,8.0,54,0.00,,,0.00,Rainwise IP-100,2013-12-15 04:43:00,
2013-12-14 20:48:00,51.4,36.0,30.58,NNW,337,5.6,7.0,55,0.00,,,0.00,Rainwise IP-100,2013-12-15 04:48:00,
2013-12-14 20:53:00,51.2,36.0,30.58,NNE,22,4.7,9.0,55,0.00,,,0.00,Rainwise IP-100,2013-12-15 04:53:00,
2013-12-14 20:58:00,51.0,36.0,30.58,ENE,67,2.6,10.0,56,0.00,,,0.00,Rainwise IP-100,2013-12-15 04:58:00,
2013-12-14 21:01:00,51.0,36.0,30.58,North,360,3.3,10.0,56,0.00,,,0.00,Rainwise IP-100,2013-12-15 05:01:00,
2013-12-14 21:02:00,51.0,36.0,30.58,North,360,4.4,8.0,56,0.00,,,0.00,Rainwise IP-100,2013-12-15 05:02:00,
2013-12-14 21:07:00,51.0,36.0,30.58,ENE,67,3.7,8.0,56,0.00,,,0.00,Rainwise IP-100,2013-12-15 05:07:00,
2013-12-14 21:12:00,50.9,36.0,30.58,NNE,22,0.0,4.0,56,0.00,,,0.00,Rainwise IP-100,2013-12-15 05:12:00,
2013-12-14 21:17:00,50.7,36.0,30.58,NE,45,2.3,5.0,57,0.00,,,0.00,Rainwise IP-100,2013-12-15 05:17:00,
2013-12-14 21:22:00,50.4,36.0,30.59,NNE,22,0.0,3.0,57,0.00,,,0.00,Rainwise IP-100,2013-12-15 05:22:00,
2013-12-14 21:27:00,50.2,36.0,30.59,NE,45,3.3,6.0,57,0.00,,,0.00,Rainwise IP-100,2013-12-15 05:27:00,
2013-12-14 21:32:00,50.2,36.0,30.58,North,360,2.8,5.0,58,0.00,,,0.00,Rainwise IP-100,2013-12-15 05:32:00,
2013-12-14 21:37:00,50.2,36.0,30.59,SE,135,1.4,4.0,58,0.00,,,0.00,Rainwise IP-100,2013-12-15 05:37:00,
2013-12-14 21:42:00,49.9,36.0,30.59,ENE,67,0.0,2.0,59,0.00,,,0.00,Rainwise IP-100,2013-12-15 05:42:00,
2013-12-14 21:47:00,49.6,37.0,30.59,NNW,337,0.0,2.0,60,0.00,,,0.00,Rainwise IP-100,2013-12-15 05:47:00,
2013-12-14 21:52:00,49.4,36.0,30.59,ENE,67,1.4,4.0,60,0.00,,,0.00,Rainwise IP-100,2013-12-15 05:52:00,
2013-12-14 21:57:00,49.3,36.0,30.59,SSE,157,1.6,2.0,61,0.00,,,0.00,Rainwise IP-100,2013-12-15 05:57:00,
2013-12-14 22:02:00,49.1,36.0,30.59,South,180,0.0,2.0,61,0.00,,,0.00,Rainwise IP-100,2013-12-15 06:02:00,
2013-12-14 22:07:00,48.8,37.0,30.59,SE,135,0.0,2.0,62,0.00,,,0.00,Rainwise IP-100,2013-12-15 06:07:00,
2013-12-14 22:12:00,48.7,37.0,30.59,NNE,22,0.0,2.0,62,0.00,,,0.00,Rainwise IP-100,2013-12-15 06:12:00,
2013-12-14 22:17:00,48.8,37.0,30.60,SE,135,1.6,3.0,62,0.00,,,0.00,Rainwise IP-100,2013-12-15 06:17:00,
2013-12-14 22:22:00,48.9,37.0,30.60,SE,135,0.0,3.0,62,0.00,,,0.00,Rainwise IP-100,2013-12-15 06:22:00,
2013-12-14 22:27:00,48.8,37.0,30.59,NE,45,0.0,3.0,62,0.00,,,0.00,Rainwise IP-100,2013-12-15 06:27:00,
2013-12-14 22:32:00,48.6,37.0,30.59,East,90,0.0,4.0,62,0.00,,,0.00,Rainwise IP-100,2013-12-15 06:32:00,
2013-12-14 22:37:00,48.7,37.0,30.60,ENE,67,4.2,5.0,62,0.00,,,0.00,Rainwise IP-100,2013-12-15 06:37:00,
2013-12-14 22:42:00,48.9,37.0,30.60,ENE,67,5.8,5.8,62,0.00,,,0.00,Rainwise IP-100,2013-12-15 06:42:00,
2013-12-14 22:47:00,49.1,37.0,30.60,SE,135,0.0,6.0,62,0.00,,,0.00,Rainwise IP-100,2013-12-15 06:47:00,
2013-12-14 22:52:00,49.0,37.0,30.60,SSE,157,2.3,2.3,62,0.00,,,0.00,Rainwise IP-100,2013-12-15 06:52:00,
2013-12-14 22:57:00,48.8,37.0,30.60,ESE,112,1.9,4.0,63,0.00,,,0.00,Rainwise IP-100,2013-12-15 06:57:00,
2013-12-14 23:02:00,48.5,37.0,30.60,NNE,22,0.0,3.0,64,0.00,,,0.00,Rainwise IP-100,2013-12-15 07:02:00,
2013-12-14 23:07:00,48.2,37.0,30.60,SSW,202,0.0,2.0,65,0.00,,,0.00,Rainwise IP-100,2013-12-15 07:07:00,
2013-12-14 23:12:00,47.9,37.0,30.60,SE,135,1.9,2.0,65,0.00,,,0.00,Rainwise IP-100,2013-12-15 07:12:00,
2013-12-14 23:17:00,47.7,37.0,30.59,East,90,2.1,2.1,66,0.00,,,0.00,Rainwise IP-100,2013-12-15 07:17:00,
2013-12-14 23:22:00,47.7,37.0,30.60,ESE,112,1.9,2.0,67,0.00,,,0.00,Rainwise IP-100,2013-12-15 07:22:00,
2013-12-14 23:27:00,47.7,37.0,30.59,ENE,67,0.0,2.0,67,0.00,,,0.00,Rainwise IP-100,2013-12-15 07:27:00,
2013-12-14 23:32:00,47.5,37.0,30.59,ESE,112,3.5,4.0,67,0.00,,,0.00,Rainwise IP-100,2013-12-15 07:32:00,
2013-12-14 23:37:00,47.4,37.0,30.59,ENE,67,1.6,3.0,68,0.00,,,0.00,Rainwise IP-100,2013-12-15 07:37:00,
2013-12-14 23:42:00,47.4,37.0,30.59,ENE,67,1.9,4.0,68,0.00,,,0.00,Rainwise IP-100,2013-12-15 07:42:00,
2013-12-14 23:47:00,47.2,37.0,30.59,NE,45,2.8,4.0,69,0.00,,,0.00,Rainwise IP-100,2013-12-15 07:47:00,
2013-12-14 23:52:00,47.3,37.0,30.59,NE,45,3.3,5.0,68,0.00,,,0.00,Rainwise IP-100,2013-12-15 07:52:00,
2013-12-14 23:57:00,47.6,37.0,30.58,NE,45,6.1,6.1,67,0.00,,,0.00,Rainwise IP-100,2013-12-15 07:57:00,